State College, PA

9:04 AM EDT on May 22, 2018 (GMT -0400)
University Park

Weather History for KUNV - March, 2013

Change the Weather History Date:

Wednesday, March 20, 2013

  Actual Average Record
Temperature  
Mean Temperature 32 °F -  
Max Temperature 37 °F 47 °F 74 °F (1945)
Min Temperature 26 °F 27 °F 5 °F (1967)
Degree Days  
Heating Degree Days 34    
Moisture  
Dew Point 16 °F    
Average Humidity 58    
Maximum Humidity 73    
Minimum Humidity 38    
Precipitation  
Precipitation 0.00 in - - ()
Sea Level Pressure  
Sea Level Pressure 29.84 in    
Wind  
Wind Speed 14 mph (West)    
Max Wind Speed 20 mph    
Max Gust Speed 31 mph    
Visibility 10 miles    
Events      
Averages and records for this station are not official NWS values.
T = Trace of Precipitation, MM = Missing Value Source: NWS Daily Summary

Daily Weather History Graph

Daily Weather History Graph

Search for Another Location

Airport or City:

Astronomy

Mar. 20, 2013 Rise Set
Actual Time 7:14 AM EDT 7:23 PM EDT
Civil Twilight 6:47 AM EDT 7:51 PM EDT
Nautical Twilight 6:15 AM EDT 8:23 PM EDT
Astronomical Twilight 5:42 AM EDT 8:55 PM EDT
Moon 12:55 PM EDT (3/20) 2:54 AM EDT (3/20)
Length of Visible Light 13h 04m
Length of Day
12h 09m
First Quarter, 59% of the Moon is Illuminated
Mar 20
First Quarter
Mar 27
Full
Apr 3
Last Quarter
Apr 10
New
Apr 18
First Quarter

Hourly Weather History & Observations

Time (EDT) Temp. Windchill Dew Point Humidity Pressure Visibility Wind Dir Wind Speed Gust Speed Precip Events Conditions
12:15 AM 29.1 °F 17.9 °F 15.6 °F 57% 29.87 in 10.0 mi West 15.0 mph 24.2 mph N/A   Overcast
12:35 AM 29.1 °F 17.1 °F 15.6 °F 57% 29.87 in 10.0 mi West 17.3 mph 24.2 mph N/A   Overcast
12:55 AM 28.9 °F 17.3 °F 16.7 °F 60% 29.87 in 10.0 mi West 16.1 mph 31.1 mph N/A   Overcast
1:35 AM 27.9 °F 16.3 °F 18.0 °F 66% 29.86 in 10.0 mi WSW 15.0 mph 21.9 mph N/A   Overcast
1:55 AM 27.5 °F 15.0 °F 17.6 °F 66% 29.86 in 10.0 mi WSW 17.3 mph - N/A   Mostly Cloudy
2:15 AM 27.1 °F 15.4 °F 18.1 °F 69% 29.87 in 10.0 mi WSW 15.0 mph 20.7 mph N/A   Scattered Clouds
2:35 AM 27.1 °F 14.1 °F 17.8 °F 68% 29.86 in 10.0 mi WSW 18.4 mph 23.0 mph N/A   Clear
2:55 AM 27.9 °F 17.3 °F 17.8 °F 66% 29.87 in 10.0 mi WSW 12.7 mph 17.3 mph N/A   Mostly Cloudy
3:15 AM 27.7 °F 16.1 °F 17.6 °F 66% 29.86 in 10.0 mi WSW 15.0 mph - N/A   Overcast
3:35 AM 27.5 °F 15.9 °F 17.4 °F 66% 29.86 in 10.0 mi SW 15.0 mph 20.7 mph N/A   Mostly Cloudy
3:55 AM 27.1 °F 14.5 °F 18.5 °F 70% 29.86 in 10.0 mi WSW 17.3 mph 25.3 mph N/A   Mostly Cloudy
4:15 AM 26.6 °F 16.2 °F 19.0 °F 73% 29.86 in 10.0 mi WSW 11.5 mph 18.4 mph N/A   Scattered Clouds
4:35 AM 26.6 °F 14.7 °F 18.3 °F 71% 29.86 in 10.0 mi WSW 15.0 mph - N/A   Clear
4:55 AM 26.8 °F 15.9 °F 17.6 °F 68% 29.87 in 10.0 mi SW 12.7 mph 19.6 mph N/A   Clear
5:15 AM 26.2 °F 15.2 °F 18.0 °F 71% 29.87 in 10.0 mi WSW 12.7 mph - N/A   Scattered Clouds
5:35 AM 26.1 °F 15.6 °F 18.5 °F 73% 29.87 in 10.0 mi WSW 11.5 mph - N/A   Clear
5:53 AM 26.6 °F 14.7 °F 17.6 °F 69% 29.87 in 10.0 mi West 15.0 mph - N/A   Clear
6:53 AM 26.6 °F 14.3 °F 14.0 °F 59% 29.87 in 10.0 mi West 16.1 mph 23.0 mph N/A   Scattered Clouds
8:53 AM 28.4 °F 16.6 °F 12.2 °F 51% 29.88 in 10.0 mi West 16.1 mph 23.0 mph N/A   Scattered Clouds
9:53 AM 30.2 °F 17.8 °F 15.8 °F 55% 29.87 in 10.0 mi West 19.6 mph 27.6 mph N/A   Scattered Clouds
10:53 AM 32.0 °F 20.8 °F 15.8 °F 51% 29.86 in 10.0 mi West 17.3 mph - N/A   Scattered Clouds
11:53 AM 33.8 °F 22.8 °F 14.0 °F 44% 29.83 in 10.0 mi West 18.4 mph 27.6 mph N/A   Scattered Clouds
12:53 PM 35.6 °F 26.2 °F 14.0 °F 41% 29.82 in 10.0 mi West 15.0 mph 25.3 mph N/A   Mostly Cloudy
1:53 PM 37.4 °F 27.5 °F 14.0 °F 38% 29.78 in 10.0 mi West 18.4 mph - N/A   Overcast
2:53 PM 35.6 °F 26.6 °F 19.4 °F 52% 29.79 in 10.0 mi West 13.8 mph - N/A   Overcast
3:53 PM 37.4 °F 28.2 °F 17.6 °F 45% 29.77 in - West 16.1 mph - N/A   Mostly Cloudy
4:53 PM 35.6 °F 25.5 °F 15.8 °F 44% 29.77 in 10.0 mi WNW 17.3 mph - N/A   Mostly Cloudy
5:53 PM 33.8 °F 26.4 °F 17.6 °F 52% 29.77 in 10.0 mi WNW 9.2 mph - N/A   Mostly Cloudy
6:53 PM 32.0 °F 24.2 °F 19.4 °F 60% 29.77 in 10.0 mi WNW 9.2 mph - N/A   Mostly Cloudy
7:53 PM 32.0 °F 25.6 °F 17.6 °F 55% 29.79 in 10.0 mi West 6.9 mph - N/A   Mostly Cloudy
8:53 PM 30.2 °F 23.4 °F 15.8 °F 55% 29.81 in 10.0 mi NW 6.9 mph - N/A   Mostly Cloudy
9:35 PM 30.2 °F 21.9 °F 14.5 °F 52% 29.81 in 10.0 mi WNW 9.2 mph - N/A   Overcast
9:55 PM 29.7 °F 22.8 °F 14.5 °F 53% 29.81 in 10.0 mi NW 6.9 mph - N/A   Overcast
10:15 PM 29.1 °F 20.0 °F 14.9 °F 55% 29.82 in 10.0 mi NW 10.4 mph - N/A   Overcast
10:35 PM 28.8 °F 19.5 °F 14.9 °F 56% 29.82 in 10.0 mi West 10.4 mph - N/A   Overcast
10:55 PM 28.2 °F 18.9 °F 13.6 °F 54% 29.82 in 10.0 mi West 10.4 mph - N/A   Mostly Cloudy
11:15 PM 27.3 °F 20.9 °F 13.6 °F 56% 29.82 in 10.0 mi West 5.8 mph - N/A   Scattered Clouds
11:35 PM 27.1 °F 21.8 °F 13.1 °F 56% 29.82 in 10.0 mi West 4.6 mph - N/A   Mostly Cloudy
11:55 PM 27.0 °F 21.6 °F 12.9 °F 56% 29.82 in 10.0 mi WNW 4.6 mph - N/A   Scattered Clouds